Flight Track Log - Related Links

Times and Time Zones

All times are in EDT time to prevent confusion due to time zone crossing. See the ASQ5685 flight status page for this flight to view local times or setup timezone preferences in your user account.

Time Position Orientation Groundspeed Altitude Reporting Facility
EDT Latitude Longitude Course Direction KTS MPH feet Rate Location/Type
Sat 09:24:03 33.6333 -84.3833 53° Northeast 170 196 2,700  Level Atlanta TRACON
Sat 09:24:57 33.6333 -84.3167 90° East 209 241 4,800 2,200 Climbing Atlanta TRACON
Sat 09:26:00 33.7649 -83.9531 54° Northeast  Level FlightAware
Sat 09:26:03 33.6333 -84.2333 90° East 251 289 7,100  Level Atlanta TRACON
Sat 09:26:57 33.6333 -84.1500 90° East 281 323 8,900 2,038 Climbing Atlanta TRACON
Sat 09:27:00 33.8253 -83.8525 54° Northeast  Level FlightAware
Sat 09:27:49 33.6564 -84.0689 71° East 285 328 10,700  Level Atlanta Center
Sat 09:28:00 33.8883 -83.7545 48° Northeast  Level FlightAware
Sat 09:28:49 33.7211 -83.9864 47° Northeast 301 346 11,800  Level Atlanta Center
Sat 09:29:00 33.9532 -83.6582 53° Northeast  Level FlightAware
Sat 09:29:49 33.7900 -83.8964 47° Northeast 343 395 13,000  Level Atlanta Center
Sat 09:30:49 33.8628 -83.8061 46° Northeast 365 420 14,600 1,300 Climbing Atlanta Center
Sat 09:31:49 33.9358 -83.7083 48° Northeast 378 435 15,600 1,100 Climbing Atlanta Center
Sat 09:32:49 33.9981 -83.6053 54° Northeast 378 435 16,800 1,150 Climbing Atlanta Center
Sat 09:33:49 34.0622 -83.5072 52° Northeast 378 435 17,900 1,050 Climbing Atlanta Center
Sat 09:34:49 34.1267 -83.4039 53° Northeast 378 435 18,900 950 Climbing Atlanta Center
Sat 09:35:49 34.1928 -83.3031 52° Northeast 378 435 19,800 800 Climbing Atlanta Center
Sat 09:36:49 34.2506 -83.2069 54° Northeast 384 442 20,500 750 Climbing Atlanta Center
Sat 09:37:49 34.3186 -83.0981 53° Northeast 394 453 21,300 800 Climbing Atlanta Center
Sat 09:38:49 34.3886 -82.9867 53° Northeast 394 453 22,100 800 Climbing Atlanta Center
Sat 09:39:49 34.4544 -82.8725 55° Northeast 406 467 22,900 850 Climbing Atlanta Center
Sat 09:40:49 34.5306 -82.7606 50° Northeast 422 486 23,800 850 Climbing Atlanta Center
Sat 09:41:49 34.5983 -82.6458 54° Northeast 415 478 24,600 750 Climbing Atlanta Center
Sat 09:42:49 34.6658 -82.5361 53° Northeast 415 478 25,300 750 Climbing Atlanta Center
Sat 09:43:49 34.7353 -82.4236 53° Northeast 415 478 26,100 650 Climbing Atlanta Center
Sat 09:44:49 34.8047 -82.3033 55° Northeast 415 478 26,600 500 Climbing Atlanta Center
Sat 09:45:49 34.8761 -82.1906 52° Northeast 415 478 27,100 550 Climbing Atlanta Center
Sat 09:46:49 34.9575 -82.0594 53° Northeast 421 484 27,700 550 Climbing Atlanta Center
Sat 09:47:49 35.0264 -81.9436 54° Northeast 426 490 28,200 500 Climbing Atlanta Center
Sat 09:48:49 35.0931 -81.8203 57° Northeast 433 498 28,700 500 Climbing Atlanta Center
Sat 09:49:49 35.1575 -81.6964 58° Northeast 428 493 29,200 500 Climbing Atlanta Center
Sat 09:50:49 35.2219 -81.5725 57° Northeast 428 493 29,700 500 Climbing Atlanta Center
Sat 09:51:49 35.2861 -81.4486 58° Northeast 422 486 30,200 500 Climbing Atlanta Center
Sat 09:52:49 35.3525 -81.3269 56° Northeast 422 486 30,700 400 Climbing Atlanta Center
Sat 09:53:49 35.4142 -81.2025 59° Northeast 422 486 31,000 150 Climbing Atlanta Center
Sat 09:54:49 35.4803 -81.0778 57° Northeast 427 491 31,000  Level Atlanta Center
Sat 09:55:49 35.5458 -80.9503 58° Northeast 432 497 31,000  Level Atlanta Center
Sat 09:56:49 35.6136 -80.8225 57° Northeast 438 504 31,000  Level Atlanta Center
Sat 09:57:49 35.6811 -80.6922 57° Northeast 438 504 31,000  Level Atlanta Center
Sat 10:00:02 35.8256 -80.4056 58° Northeast 455 524 31,000  Level Washington Center
Sat 10:01:01 35.8933 -80.2764 57° Northeast 455 524 31,000  Level Washington Center
Sat 10:02:02 35.9608 -80.1444 58° Northeast 450 518 31,000  Level Washington Center
Sat 10:03:02 36.0194 -80.0297 58° Northeast 443 510 31,000  Level Washington Center
Sat 10:04:03 36.0978 -79.8900 55° Northeast 443 510 31,000  Level Washington Center
Sat 10:05:03 36.1711 -79.7578 55° Northeast 449 517 31,000  Level Washington Center
Sat 10:06:03 36.2356 -79.6428 55° Northeast 458 527 31,000 -101 Level Washington Center
Sat 10:07:02 36.3133 -79.4997 56° Northeast 453 521 30,800 -454 Descending Washington Center
Sat 10:08:02 36.3772 -79.3972 52° Northeast 453 521 30,100 -1,041 Descending Washington Center
Sat 10:09:03 36.4528 -79.2511 57° Northeast 460 529 28,700 -1,289 Descending Washington Center
Sat 10:10:03 36.5383 -79.1078 53° Northeast 460 529 27,500 -1,210 Descending Washington Center
Sat 10:11:02 36.6111 -78.9764 55° Northeast 460 529 26,300 -1,250 Descending Washington Center
Sat 10:12:03 36.6817 -78.8422 57° Northeast 454 522 25,000 -645 Descending Washington Center
Sat 10:13:03 36.7494 -78.7208 55° Northeast 448 516 25,000  Level Washington Center
Sat 10:14:02 36.8172 -78.6014 55° Northeast 430 495 25,000  Level Washington Center
Sat 10:15:02 36.8786 -78.4819 57° Northeast 424 488 25,000 -347 Level Washington Center
Sat 10:16:03 36.9536 -78.3936 43° Northeast 407 468 24,300 -893 Descending Washington Center
Sat 10:17:03 37.0497 -78.2983 38° Northeast 414 476 23,200 -1,109 Descending Washington Center
Sat 10:18:02 37.1500 -78.2028 37° Northeast 430 495 22,100 -1,100 Descending Washington Center
Sat 10:19:03 37.2522 -78.1019 38° Northeast 430 495 21,000 -545 Descending Washington Center
Sat 10:20:03 37.3436 -78.0136 38° Northeast 425 489 21,000  Level Washington Center
Sat 10:21:02 37.4353 -77.9222 38° Northeast 425 489 21,000  Level Washington Center
Sat 10:22:02 37.5267 -77.8308 38° Northeast 425 489 21,000  Level Washington Center
Sat 10:23:03 37.6322 -77.7683 25° Northeast 419 482 21,000 -793 Level Washington Center
Sat 10:24:03 37.7353 -77.7083 25° Northeast 413 475 19,400 -1,780 Descending Washington Center
Sat 10:25:01 37.8344 -77.6506 25° Northeast 403 464 17,500 -2,186 Descending Washington Center
Sat 10:26:01 37.9269 -77.5978 24° Northeast 392 451 15,100 -2,380 Descending Washington Center
Sat 10:27:02 38.0136 -77.5422 27° Northeast 363 418 12,700 -2,250 Descending Washington Center
Sat 10:28:01 38.0933 -77.5019 22° Northeast 337 388 10,600 -1,361 Descending Washington Center
Sat 10:29:01 38.1714 -77.4536 26° Northeast 330 380 10,000 -248 Descending Washington Center
Sat 10:30:02 38.2428 -77.4133 24° Northeast 297 342 10,100 49 Climbing Washington Center
Sat 10:31:03 38.3122 -77.3700 26° Northeast 281 323 10,100 -443 Level Washington Center
Sat 10:32:04 38.3897 -77.3558 North 276 318 9,200 -1,220 Descending Washington Center
Sat 10:33:01 38.4667 -77.3603 357° North 271 312 7,700 -1,538 Descending Washington Center
Sat 10:34:01 38.5417 -77.3647 357° North 271 312 6,200 -1,537 Descending Washington Center
Sat 10:35:02 38.6147 -77.3667 359° North 271 312 4,600 -1,692 Descending Washington Center
Sat 10:35:19 38.6500 -77.3667 360° North 264 304 4,000 -468 Descending Potomac TRACON
Sat 10:36:19 38.7167 -77.3667 360° North 268 308 4,000  Level Potomac TRACON
Sat 10:37:19 38.8000 -77.3500 North 274 315 4,000  Level Potomac TRACON
Sat 10:38:19 38.8667 -77.3500 360° North 266 306 4,000 -421 Level Potomac TRACON
Sat 10:39:13 38.9333 -77.3500 360° North 261 300 3,200 -1,053 Descending Potomac TRACON
Sat 10:40:13 39.0000 -77.3500 360° North 240 276 2,000 -571 Descending Potomac TRACON
Sat 10:41:19 39.0500 -77.3833 333° Northwest 198 228 2,000 -50 Level Potomac TRACON
Sat 10:42:13 39.0333 -77.4333 247° West 188 216 1,900 -556 Descending Potomac TRACON
Sat 10:43:07 38.9833 -77.4333 180° South 150 173 1,000 -1,000 Descending Potomac TRACON
Sat 10:45:00 38.9474 -77.4599 195° South  Level Estimated
Sat 10:52:00 38.9474 -77.4599 195° South  Level Estimated
Sat 10:53:00 38.9474 -77.4599 195° South  Level Estimated
Sat 10:54:00 38.9474 -77.4599 195° South  Level Estimated
Sat 10:55:00 38.9474 -77.4599 195° South  Level Estimated

Login

Don't have an account? Register now (free) for customized features, flight alerts, and more!